User: anonymous
Location: Maiden
(35.5760°N, 81.2120°W)
Time: 02:17:21
(UTC-04:00)
Language:

Cosmos 2151 - Orbit

View from above orbital plane
View from above orbital plane
View from above satellite
View from above satellite

Ground track
Ground track

The orbit data is extracted from the following two-line orbital elements,

1 21422U 91042A   14204.07035721  .00000317  00000-0  30137-4 0  9554
2 21422 082.5024 174.3945 0013765 226.1238 133.8844 14.90194867250505
Epoch (UTC): 23 July 2014 01:41:18
Eccentricity: 0.0013765
inclination: 82.5024°
perigee height: 588 km
apogee height: 607 km
right ascension of ascending node: 174.3945°
argument of perigee: 226.1238°
revolutions per day: 14.90194867
mean anomaly at epoch: 133.8844°
orbit number at epoch: 25050

The dashed part of the orbit path shows where the satellite is in the earth's shadow,  

DLR